Vorticity
7 6 6 5 5 5 7 7 7 5 4 6 7 10 10 10 8 7 7 6 6 5 2 2 3 3 3 3 2 2 23 23 14 24 8 12 9 2 5 5 5 5 5
1 1 3 3 4 8 9 8 8 8 6 7 6 3 2 3 5 5 4 7 7 6 6 4 3 3 3 2 2 2 -0 1 34 5 4 13 11 -0 3 2 4 4 4
-2 9 11 6 7 8 9 9 7 8 8 7 6 5 6 6 6 6 7 7 8 9 8 6 5 5 3 5 3 3 3 3 2 5 11 15 40 46 -2 6 2 2 3
2 7 7 9 9 8 9 9 9 9 10 10 11 11 12 12 11 10 8 8 8 8 8 10 7 5 4 4 5 3 4 4 5 2 2 1 1 -5 -1 43 -2 3 3
9 10 8 7 6 4 4 4 5 6 6 6 6 6 6 7 8 9 10 12 11 10 8 9 7 9 7 4 5 5 4 4 4 3 4 4 3 3 2 12 14 10 3
6 5 4 2 3 2 2 3 5 4 2 4 4 5 6 5 5 6 9 9 8 8 11 12 11 8 7 7 6 5 6 5 1 2 3 5 2 7 7 -1 20 4 7
4 4 3 2 3 5 5 7 5 3 3 4 5 5 4 4 4 5 7 8 8 8 9 6 11 14 14 11 11 9 6 6 5 4 4 2 2 1 5 8 11 11 12
5 5 4 2 3 7 5 7 4 2 4 4 7 6 5 6 6 0 4 11 7 11 10 9 10 8 9 11 15 12 12 9 6 5 5 6 3 3 6 6 6 12 12
7 8 9 5 3 4 6 6 5 7 9 8 6 1 10 9 2 9 4 5 7 6 9 11 11 11 9 9 9 11 13 14 11 9 5 2 4 4 4 4 5 6 9
2 7 8 8 8 9 5 4 11 11 12 6 3 16 7 12 15 14 17 13 12 17 11 10 8 8 11 11 10 10 10 12 11 13 11 9 5 6 7 5 4 6 6
1 2 3 3 5 5 9 10 9 3 -1 7 9 9 10 9 12 13 12 15 17 15 10 14 8 7 6 9 10 10 9 12 12 13 11 11 10 8 8 9 6 4 5
5 7 9 11 10 8 5 2 5 10 9 5 8 8 9 14 13 7 8 11 17 4 15 18 15 11 8 7 5 7 9 9 9 13 10 13 12 8 7 8 9 8 4
10 9 9 7 5 8 10 11 7 5 8 8 11 9 11 11 12 12 12 12 16 14 7 8 14 10 10 9 8 6 6 6 7 8 12 14 10 12 10 7 6 8 9
9 9 8 11 10 7 6 8 5 8 8 11 9 10 9 14 17 16 13 10 8 10 11 11 22 14 15 11 11 16 17 16 14 8 10 11 13 14 10 10 8 6 6
14 13 8 5 9 9 6 8 16 22 22 25 26 24 23 24 23 14 22 38 29 30 27 11 11 9 10 13 19 5 10 11 9 13 15 9 13 8 15 13 10 9 7
5 10 13 13 11 19 29 34 36 33 28 26 26 25 26 34 27 25 12 11 8 10 25 13 9 9 2 8 -7 2 19 6 2 5 12 14 10 12 13 12 14 11 9
12 11 17 22 34 35 27 29 29 29 26 24 19 10 11 12 18 20 21 4 9 5 4 15 15 6 6 16 20 16 11 8 4 5 1 7 7 16 15 10 7 13 12
9 20 34 26 25 31 31 22 18 8 9 9 14 12 13 12 7 7 7 17 27 26 29 11 6 -0 3 3 -1 6 -7 -1 -1 5 5 -2 2 -5 27 20 16 11 9
28 29 27 31 26 19 18 16 19 12 8 12 9 5 5 8 9 12 11 10 16 17 18 19 21 25 25 27 26 28 29 30 23 19 20 29 33 27 23 23 25 26 16
30 29 27 16 12 12 13 14 12 9 8 8 10 12 14 15 15 15 15 14 11 12 12 13 14 13 12 12 13 13 14 15 15 16 16 15 14 12 13 16 19 20 27
28 16 10 8 10 14 16 14 14 15 16 15 15 16 15 13 13 12 10 9 11 10 12 13 13 15 15 16 17 16 16 15 14 13 11 10 12 14 15 14 15 17 17
9 14 14 13 11 9 9 8 8 8 8 8 8 7 9 11 12 11 11 9 5 11 14 14 17 17 15 17 23 26 28 29 28 25 14 14 15 13 14 13 14 15 15
12 8 9 10 11 12 13 13 12 11 10 10 11 11 8 7 6 7 8 8 15 15 16 15 15 28 29 21 15 15 17 17 25 29 31 34 35 26 15 14 14 13 13
9 8 9 12 13 15 17 17 19 20 21 20 17 14 11 12 14 14 16 13 16 18 23 30 21 6 5 8 11 12 11 7 4 4 5 6 6 18 42 42 18 14 15
8 7 10 14 19 19 18 18 19 20 20 20 23 25 23 18 14 14 14 18 27 19 6 7 16 23 25 20 17 16 18 19 20 15 14 10 6 4 6 13 54 43 19
6 9 15 20 22 20 17 17 20 22 23 25 24 21 23 24 23 18 17 31 6 13 18 13 20 21 31 25 17 14 15 24 28 27 23 17 22 6 5 3 8 48 40
Height
5786 5783 5780 5777 5773 5771 5768 5765 5763 5761 5759 5757 5755 5753 5751 5750 5750 5749 5748 5749 5749 5749 5749 5751 5750 5751 5751 5752 5753 5754 5754 5756 5756 5759 5761 5765 5770 5774 5781 5787 5791 5795 5799
5779 5776 5772 5768 5765 5762 5759 5756 5753 5751 5749 5747 5746 5744 5742 5740 5739 5738 5737 5739 5739 5739 5739 5740 5741 5741 5742 5743 5744 5746 5747 5747 5749 5751 5753 5758 5763 5766 5770 5776 5782 5787 5791
5771 5767 5763 5759 5755 5752 5748 5745 5743 5740 5738 5736 5734 5733 5731 5729 5728 5726 5725 5724 5726 5727 5728 5728 5728 5729 5730 5732 5733 5735 5737 5739 5741 5743 5746 5749 5752 5757 5760 5766 5769 5776 5781
5761 5756 5753 5748 5744 5741 5737 5734 5731 5728 5726 5724 5722 5720 5719 5717 5716 5714 5712 5711 5710 5711 5712 5714 5716 5717 5717 5719 5721 5723 5726 5729 5731 5734 5737 5739 5743 5748 5752 5756 5759 5763 5768
5749 5745 5741 5737 5733 5729 5726 5722 5718 5715 5712 5710 5708 5706 5705 5704 5702 5700 5699 5699 5698 5697 5697 5700 5699 5702 5704 5705 5707 5710 5713 5715 5720 5723 5725 5728 5732 5737 5741 5744 5747 5752 5758
5736 5732 5728 5723 5719 5714 5710 5707 5704 5701 5699 5696 5694 5692 5691 5689 5687 5686 5685 5684 5683 5683 5682 5682 5685 5685 5686 5688 5691 5694 5697 5700 5704 5708 5712 5715 5719 5724 5728 5732 5735 5740 5745
5726 5722 5717 5713 5708 5703 5699 5694 5690 5687 5683 5680 5678 5676 5674 5672 5671 5670 5669 5668 5667 5666 5666 5667 5666 5667 5671 5671 5673 5677 5679 5683 5686 5691 5695 5701 5706 5710 5714 5718 5722 5727 5734
5715 5710 5705 5699 5694 5689 5685 5681 5676 5672 5669 5665 5660 5658 5657 5655 5653 5655 5651 5649 5649 5649 5649 5648 5650 5650 5650 5654 5657 5659 5662 5666 5668 5672 5678 5683 5688 5694 5699 5702 5707 5712 5718
5700 5695 5689 5684 5680 5675 5671 5667 5662 5657 5654 5651 5645 5641 5638 5637 5632 5631 5634 5634 5629 5629 5629 5630 5629 5631 5633 5633 5636 5641 5645 5648 5652 5655 5658 5663 5670 5675 5680 5686 5691 5697 5703
5687 5680 5675 5670 5665 5659 5654 5649 5643 5639 5633 5634 5626 5623 5623 5619 5615 5611 5608 5610 5610 5608 5609 5609 5610 5610 5613 5615 5617 5619 5624 5628 5633 5637 5641 5645 5649 5657 5662 5667 5674 5681 5688
5669 5662 5655 5649 5644 5638 5633 5628 5623 5617 5611 5608 5604 5600 5596 5596 5596 5591 5590 5585 5584 5587 5588 5590 5589 5589 5591 5593 5595 5598 5605 5608 5613 5618 5623 5628 5632 5636 5642 5648 5655 5662 5669
5653 5646 5638 5630 5624 5618 5612 5607 5602 5596 5590 5584 5581 5576 5573 5571 5570 5566 5567 5569 5562 5559 5564 5567 5568 5569 5569 5571 5573 5576 5583 5586 5591 5597 5602 5607 5613 5618 5622 5628 5636 5643 5651
5636 5627 5619 5612 5603 5597 5590 5584 5579 5572 5566 5561 5555 5550 5546 5544 5542 5541 5540 5540 5540 5539 5538 5541 5545 5546 5548 5549 5551 5555 5559 5563 5568 5574 5580 5585 5591 5598 5604 5609 5615 5623 5631
5616 5607 5598 5590 5581 5573 5566 5559 5553 5546 5538 5532 5527 5522 5518 5515 5514 5513 5512 5512 5513 5515 5517 5519 5520 5523 5525 5528 5530 5535 5537 5541 5546 5550 5555 5562 5569 5575 5582 5589 5595 5602 5610
5593 5584 5574 5564 5555 5547 5538 5529 5521 5514 5506 5500 5496 5492 5490 5488 5487 5488 5488 5489 5488 5491 5495 5500 5499 5500 5504 5507 5510 5514 5517 5519 5524 5528 5532 5538 5544 5552 5559 5567 5575 5582 5589
5571 5561 5550 5539 5528 5517 5505 5498 5490 5483 5479 5475 5472 5470 5468 5468 5468 5468 5469 5470 5470 5470 5474 5475 5478 5480 5482 5486 5490 5494 5497 5500 5504 5508 5511 5514 5521 5526 5534 5543 5552 5560 5569
5547 5535 5522 5509 5496 5486 5479 5472 5466 5463 5459 5456 5454 5452 5452 5451 5451 5451 5451 5451 5451 5450 5453 5458 5459 5462 5464 5466 5469 5471 5475 5479 5482 5486 5491 5493 5497 5502 5509 5517 5526 5536 5546
5520 5506 5492 5482 5473 5466 5460 5454 5450 5447 5444 5441 5439 5438 5437 5435 5435 5435 5434 5434 5433 5433 5432 5436 5442 5444 5446 5448 5449 5452 5453 5456 5460 5463 5467 5472 5473 5477 5483 5491 5502 5512 5522
5493 5482 5471 5463 5456 5450 5445 5440 5436 5433 5430 5427 5424 5423 5421 5420 5419 5418 5418 5418 5418 5417 5416 5415 5424 5424 5425 5428 5430 5431 5432 5434 5436 5439 5443 5447 5452 5453 5459 5466 5474 5485 5497
5474 5464 5457 5449 5443 5438 5433 5428 5423 5419 5416 5413 5410 5407 5405 5404 5403 5402 5402 5403 5402 5402 5400 5398 5402 5407 5404 5406 5408 5411 5412 5412 5416 5417 5420 5424 5429 5433 5438 5444 5452 5459 5469
5457 5450 5443 5436 5430 5424 5419 5415 5410 5405 5401 5398 5395 5392 5390 5390 5389 5388 5388 5388 5387 5386 5384 5382 5383 5386 5386 5385 5386 5387 5389 5390 5394 5397 5400 5403 5406 5412 5417 5423 5430 5437 5446
5446 5438 5431 5424 5417 5410 5406 5400 5396 5392 5388 5384 5381 5378 5376 5376 5375 5374 5374 5373 5372 5370 5368 5365 5366 5368 5366 5364 5365 5366 5367 5368 5373 5371 5375 5382 5383 5389 5396 5402 5409 5417 5426
5434 5426 5419 5411 5403 5395 5390 5384 5379 5374 5371 5368 5365 5362 5361 5361 5361 5360 5360 5359 5357 5355 5353 5350 5350 5350 5349 5348 5349 5349 5349 5350 5352 5353 5355 5362 5363 5369 5373 5379 5387 5396 5405
5422 5414 5404 5395 5386 5377 5371 5364 5359 5355 5351 5348 5346 5345 5345 5345 5345 5346 5346 5345 5344 5342 5339 5337 5338 5339 5338 5336 5336 5336 5337 5338 5340 5342 5343 5346 5347 5351 5352 5357 5365 5375 5384
5409 5399 5390 5380 5370 5361 5354 5347 5342 5338 5334 5331 5328 5327 5327 5329 5331 5333 5333 5334 5332 5330 5329 5328 5326 5326 5325 5323 5322 5322 5324 5323 5325 5327 5328 5331 5334 5338 5339 5342 5343 5350 5360
5398 5387 5376 5365 5356 5347 5339 5333 5327 5322 5319 5315 5312 5311 5312 5315 5319 5321 5323 5324 5324 5323 5322 5319 5317 5315 5313 5312 5311 5312 5312 5312 5312 5314 5314 5315 5319 5323 5326 5329 5330 5332 5339